STARLINK-1313 (45364 NORAD) Tracking and Keplerian Element Data

This shows tracking and keplerian element data for the satellite.

Feedback or suggestion? Click here.




ElementValue
Catalog45364
NameSTARLINK-1313
Epoch Orbit1792
Epoch Day189.16667824
Epoch Year2020
RAAN76.2391
Inclination52.9986
Eccentricity0.00014
Argument of Perigee75.5686
Mean Anonmoly26.2684
Mean Motion15.09977208
Decay Rate-0.01128799
L11 45364U 20019E 20189.16667824 -.01128799 00000-0 -74564-1 0 9990
L22 45364 52.9986 76.2391 0001400 75.5686 26.2684 15.09977208 17928

Live tracking and technical data element details for STARLINK-1313 (NORAD 45364). STARLINK-1313 can be tracked NOW for your location showing map with azimuth and elevation plus other details from your city location.

Track the satellite on the map from your city or location and see movement details for azimuth, elevation, latitude, longitude, range, height, and movement on the map or in text.







IsCatalogInMostPopularTable: catalog: 45364, numindb: 25
Update: records affected: 1



GetName: 45364 STARLINK-1313

Hit Count: updated at: Wed, 08 Jul 2020 04:46:54 GMT